This demonstration page uses our WeatherBlox Daily Observations layout. Learn more.

Left ArrowRight Arrow

Hourly Observations for May 20, 2022

Temp ( °F °C ) Dew Point ( °F °C ) Humidity (%) Winds ( mph kmh ) Pressure ( in mb ) Visibility ( mi km ) Precip ( " mm )
12:53 am 00:53 Clear 59 15 23 -5 25 25 N 16 26 29.99 1016 10 16 0.00 0.00
1:53 am 01:53 Clear 58 14.4 23 -5 26 26 NNW 15 24 29.99 1016 10 16 0.00 0.00
2:53 am 02:53 Clear 57 13.9 23 -5 27 27 N 20 31 29.97 1015 10 16 0.00 0.00
3:53 am 03:53 Clear 57 13.9 23 -5 27 27 N 16 26 29.98 1015 10 16 0.00 0.00
4:53 am 04:53 Clear 57 13.9 22 -5.6 26 26 N 26 43 29.97 1015 10 16 0.00 0.00
5:53 am 05:53 Sunny 56 13.3 22 -5.6 27 27 N 24 39 29.98 1015 10 16 0.00 0.00
6:53 am 06:53 Sunny 57 13.9 22 -5.6 26 26 N 33 54 29.98 1015 10 16 0.00 0.00
7:53 am 07:53 Sunny 59 15 23 -5 25 25 N 33 54 29.98 1015 10 16 0.00 0.00
8:53 am 08:53 Sunny 61 16.1 22 -5.6 22 22 N 35 56 29.96 1015 10 16 0.00 0.00
9:53 am 09:53 Sunny 65 18.3 21 -6.1 19 19 N 29 46 29.96 1014 10 16 0.00 0.00
10:53 am 10:53 Sunny 70 21.1 21 -6.1 16 16 NNE 23 37 29.95 1014 10 16 0.00 0.00
11:53 am 11:53 Sunny 72 22.2 20 -6.7 14 14 N 21 33 29.93 1013 10 16 0.00 0.00
12:53 pm 12:53 Sunny 75 23.9 20 -6.7 12 12 N 22 35 29.89 1012 10 16 0.00 0.00
1:53 pm 13:53 Sunny 77 25 20 -6.7 12 12 NNE 21 33 29.87 1011 10 16 0.00 0.00
2:53 pm 14:53 Sunny 80 26.7 20 -6.7 10 10 N 21 33 29.84 1011 10 16 0.00 0.00
3:53 pm 15:53 Sunny 80 26.7 20 -6.7 10 10 N 17 28 29.82 1010 10 16 0.00 0.00
4:53 pm 16:53 Sunny 81 27.2 18 -7.8 9 9 NNE 20 31 29.81 1009 10 16 0.00 0.00
5:53 pm 17:53 Sunny 81 27.2 17 -8.3 9 9 NNE 17 28 29.80 1009 10 16 0.00 0.00
6:53 pm 18:53 Sunny 80 26.7 18 -7.8 10 10 N 14 22 29.79 1009 10 16 0.00 0.00
7:53 pm 19:53 Sunny 78 25.6 22 -5.6 12 12 N 8 13 29.79 1009 10 16 0.00 0.00
8:53 pm 20:53 Clear 74 23.3 22 -5.6 14 14 NNW 7 11 29.80 1009 10 16 0.00 0.00
9:53 pm 21:53 Clear 71 21.7 22 -5.6 16 16 NNW 5 7 29.83 1010 10 16 0.00 0.00
10:53 pm 22:53 Clear 66 18.9 25 -3.9 21 21 N 3 6 29.85 1011 10 16 0.00 0.00
11:53 pm 23:53 Clear 61 16.1 28 -2.2 29 29 Calm 29.85 1011 10 16 0.00 0.00

Powered by AerisWeather